Regional Weather Roundup
Issued by NWS Kansas City/Pleasant Hill, MO

Home | Current Version | Previous Version | Graphics & Text | Print | Product List | Glossary Off
Versions: 1 2 3 4 5 6 7 8 9 10 11 12 13 14 15 16 17 18 19 20 21 22 23 24 25 26 27 28 29 30 31 32 33 34 35 36 37 38 39 40 41 42 43 44 45 46 47 48 49 50

000
ASUS43 KEAX 020410
RWREAX

WEATHER ROUNDUP FOR EASTERN KANSAS AND NORTHWEST MISSOURI
NATIONAL WEATHER SERVICE KANSAS CITY/PLEASANT HILL MO
1100 PM CDT MON SEP 01 2014

KSZ040-057-103>105-MOZ028-029-037-043-020500-
...KANSAS CITY METROPOLITAN AREA...

CITY           SKY/WX    TMP DP  RH WIND       PRES   REMARKS
K.C. INTL      CLOUDY    70  69  97 S7        29.89S
K.C. DOWNTOWN  CLOUDY    73  69  87 CALM      29.89R
LEES SUMMIT    LGT RAIN  71  70  96 SE3       29.91S
OLATHE - IXD   LGT RAIN  71  70  96 S5        29.94R
OLATHE - OJC   CLOUDY    70  70 100 SW12      29.95R
LAWRENCE       CLOUDY   N/A N/A N/A S6        29.91R

$$

MOZ001>008-011>017-020>025-030>033-038>040-044>046-053-054-020500-
...NORTHERN AND CENTRAL MISSOURI...

CITY           SKY/WX    TMP DP  RH WIND       PRES   REMARKS
ST. JOSEPH     PTCLDY    67  65  93 S6        29.88S
MOSBY          CLOUDY    72  70  94 CALM      29.88R
WHITEMAN AFB   TSTM      72  70  94 SW3       29.93R
CLINTON        TSTM      72  72 100 CALM      29.91R
SEDALIA        TSTM      72  70  93 S3        29.92R FOG
WARSAW         NOT AVBL
MARSHALL       TSTM      73  73 100 S5        29.93R VSB 1
CHILLICOTHE      N/A     70  68  93 CALM      29.89S
MOBERLY        RAIN      72  68  88 SE3       29.91R
KIRKSVILLE     PTCLDY    69  66  90 CALM      29.90S

$$

MOZ041-047>049-056>058-063>065-088>090-097-020500-
...EASTERN AND SOUTHERN MISSOURI...

CITY           SKY/WX    TMP DP  RH WIND       PRES   REMARKS
ST. LOUIS INTL TSTM      70  66  88 W8        29.97R FOG
SPIRIT OF STL  TSTM      68  68 100 E13       29.90R FOG
COLUMBIA       LGT RAIN  71  70  96 CALM      29.90R
JEFFERSON CITY CLOUDY    72  70  93 CALM      29.90S
MEXICO         CLOUDY   N/A N/A N/A S3        29.89  THUNDER
HANNIBAL       MOCLDY    72  68  88 S5        29.90F
ROLLA          RAIN      73  69  87 NW6       29.90R
LEBANON        TSTM      72  68  88 SW7       29.98R
OSAGE BEACH    CLOUDY    72  70  94 NW6       29.91S
SPRINGFIELD    CLOUDY    79  70  74 SE6       29.92R
BRANSON        CLOUDY    75  70  83 CALM      29.94F
JOPLIN         TSTM      75  74  96 NW9       29.93R FOG
WEST PLAINS    CLOUDY    79  69  71 S9        29.98R

$$

IAZ060-094-KSZ022-034>040-054-083-096-NEZ052-066-093-020500-
...KANSAS...SOUTHEAST NEBRASKA AND IOWA...

CITY           SKY/WX    TMP DP  RH WIND       PRES   REMARKS
TOPEKA         CLOUDY    72  71  97 CALM      29.89R
MANHATTAN      PTCLDY    69  68  96 CALM      29.89R
EMPORIA        CLOUDY    70  69  97 NE7       29.90S
CHANUTE        CLOUDY    74  71  91 N9        29.89R
WICHITA        MOCLDY    75  68  78 E15       29.88R
OMAHA          CLEAR     65  62  90 N6        29.87S
LINCOLN        CLEAR     67  63  87 NW3       29.90R
FALLS CITY     CLEAR     65  63  93 CALM      29.89R
LAMONI         MOCLDY    66  64  93 CALM      29.88R
DES MOINES     PTCLDY    70  63  78 SW5       29.86S

$$




USA.gov is the U.S. government's official web portal to all federal, state and local government web resources and services.